Weather History for South Lake Tahoe, CA

Change the Weather History Date:

Monday, March 3, 2014

  Actual Average Record
Temperature  
Mean Temperature 38 °F 33 °F  
Max Temperature 45 °F 47 °F 57 °F (1986)
Min Temperature 30 °F 20 °F 2 °F (2001)
Degree Days  
Heating Degree Days 27 32  
Month to date heating degree days 84 96  
Since 1 July heating degree days 4699 5333  
Cooling Degree Days 0 0  
Month to date cooling degree days 0 0  
Year to date cooling degree days 0 0  
Moisture  
Dew Point 31 °F    
Average Humidity 71    
Maximum Humidity 85    
Minimum Humidity 57    
Precipitation  
Precipitation 0.14 in - 1.69 in (1944)
Month to date precipitation 0.14  
Year to date precipitation 8.38  
Sea Level Pressure  
Sea Level Pressure 30.07 in    
Wind  
Wind Speed 7 mph (SSW)    
Max Wind Speed 20 mph    
Max Gust Speed 25 mph    
Visibility 10 miles    
Events Rain , Snow    
T = Trace of Precipitation, MM = Missing Value Source: NWS Daily Summary

Daily Weather History Graph

Daily Weather History Graph

Search for Another Location

Airport:

Trip Planner

Search our weather history database for the weather conditions in past years. The results will help you decide how hot, cold, wet, or windy it might be!

Date:

Astronomy

Mar. 03, 2014 Rise Set
Actual Time 6:29 AM PST 5:54 PM PST
Civil Twilight 6:02 AM PST 6:21 PM PST
Nautical Twilight 5:31 AM PST 6:52 PM PST
Astronomical Twilight 5:00 AM PST 7:23 PM PST
Moon 7:42 AM PST (3/3) 9:01 PM PST (3/3)
Length of Visible Light 12h 19m
Length of Day
11h 25m
Waxing Crescent, 8% of the Moon is Illuminated
Mar 3
Waxing Crescent
Mar 8
First Quarter
Mar 16
Full
Mar 23
Last Quarter
Mar 30
New

Hourly Weather History & Observations

Time (PST) Temp. Windchill Dew Point Humidity Pressure Visibility Wind Dir Wind Speed Gust Speed Precip Events Conditions
12:53 AM 33.1 °F - 28.0 °F 82% 30.12 in 10.0 mi Calm Calm - N/A   Mostly Cloudy
1:53 AM 35.1 °F 29.3 °F 28.0 °F 76% 30.10 in 10.0 mi SSW 6.9 mph - N/A   Clear
2:53 AM 34.0 °F 29.8 °F 28.0 °F 79% 30.09 in 10.0 mi SW 4.6 mph - N/A   Clear
3:53 AM 32.0 °F 27.5 °F 27.0 °F 82% 30.06 in 10.0 mi Variable 4.6 mph - N/A   Clear
4:53 AM 30.0 °F - 26.1 °F 85% 30.10 in 10.0 mi Calm Calm - N/A   Partly Cloudy
5:53 AM 36.0 °F 28.0 °F 27.0 °F 70% 30.08 in 10.0 mi South 11.5 mph - N/A   Mostly Cloudy
6:53 AM 33.1 °F 30.0 °F 27.0 °F 78% 30.08 in 10.0 mi SSW 3.5 mph - N/A   Clear
7:53 AM 37.9 °F 31.5 °F 28.0 °F 68% 30.07 in 10.0 mi South 9.2 mph - N/A   Mostly Cloudy
8:53 AM 41.0 °F 34.3 °F 28.0 °F 60% 30.08 in 10.0 mi South 11.5 mph - N/A   Partly Cloudy
9:53 AM 43.0 °F 35.1 °F 28.0 °F 56% 30.07 in 10.0 mi South 17.3 mph - N/A   Scattered Clouds
10:53 AM 43.0 °F 36.0 °F 28.9 °F 58% 30.09 in 10.0 mi South 13.8 mph - N/A   Overcast
11:41 AM 43.0 °F 35.4 °F 30.0 °F 60% 30.12 in 10.0 mi South 16.1 mph - N/A   Overcast
11:53 AM 44.1 °F 37.7 °F 30.0 °F 58% 30.07 in 10.0 mi SSW 12.7 mph 20.7 mph N/A   Overcast
12:53 PM 44.1 °F 37.7 °F 32.0 °F 63% 30.06 in 10.0 mi South 12.7 mph 21.9 mph N/A   Overcast
1:53 PM 43.0 °F 37.7 °F 35.1 °F 74% 30.06 in 10.0 mi South 9.2 mph - 0.00 in   Overcast
2:01 PM 43.0 °F 36.4 °F 35.1 °F 74% 30.10 in 10.0 mi South 12.7 mph - N/A   Overcast
2:37 PM 43.0 °F 35.7 °F 34.0 °F 71% 30.10 in 9.0 mi South 15.0 mph - N/A   Overcast
2:51 PM 42.8 °F 35.4 °F 33.8 °F 70% 30.10 in 10.0 mi SSW 15.0 mph 23.0 mph 0.00 in   Overcast
2:53 PM 43.0 °F 35.7 °F 33.1 °F 68% 30.05 in 10.0 mi SSW 15.0 mph - 0.00 in   Overcast
3:53 PM 41.0 °F 34.7 °F 34.0 °F 76% 30.06 in 8.0 mi South 10.4 mph - 0.00 in Rain Light Rain
4:53 PM 39.9 °F 32.9 °F 33.1 °F 77% 30.07 in 8.0 mi SSW 11.5 mph - 0.02 in Rain Light Rain
5:24 PM 39.0 °F 34.0 °F 33.1 °F 79% 30.08 in 10.0 mi SSW 6.9 mph - 0.00 in Rain Light Rain
5:53 PM 39.0 °F 32.8 °F 33.1 °F 79% 30.04 in 10.0 mi SSW 9.2 mph - 0.01 in Rain Light Rain
6:53 PM 39.0 °F 34.0 °F 33.1 °F 79% 30.05 in 10.0 mi SSW 6.9 mph - 0.00 in Rain Light Rain
7:15 PM 39.0 °F 33.4 °F 33.1 °F 79% 30.07 in 10.0 mi SSW 8.1 mph - 0.01 in Rain Light Rain
7:26 PM 39.0 °F 33.4 °F 33.1 °F 79% 30.07 in 10.0 mi SSW 8.1 mph - 0.01 in Rain Light Rain
7:53 PM 39.0 °F 34.8 °F 33.1 °F 79% 30.02 in 10.0 mi SSW 5.8 mph - 0.02 in Rain Light Rain
8:06 PM 39.0 °F 35.7 °F 33.1 °F 79% 30.06 in 9.0 mi SSW 4.6 mph - 0.00 in Rain Light Rain
8:53 PM 37.9 °F 34.4 °F 33.1 °F 83% 30.04 in 10.0 mi SSW 4.6 mph - 0.03 in Rain Light Rain
9:53 PM 37.9 °F 33.5 °F 33.1 °F 83% 30.03 in 9.0 mi South 5.8 mph - 0.03 in Rain Light Rain
10:53 PM 37.0 °F 31.0 °F 32.0 °F 82% 30.05 in 10.0 mi SSW 8.1 mph - 0.01 in Rain Light Rain
11:53 PM 36.0 °F 29.6 °F 30.9 °F 82% 30.05 in 7.0 mi South 8.1 mph - 0.02 in Snow Light Snow